Location: Oberwangen
(47.4286°N, 8.9679°E)
Time: 22:03:10
(UTC+00:00)

LEMUR 2 WINGO - Pass Details

Date: 01 February 2022
Orbit: 454 x 467 km, 51.6° (Epoch: 18 May)

Event Time Altitude Azimuth Distance (km) Brightness Sun altitude
Rises 19:30:19 0° 291° (WNW) 2,470 ? -31.3°
Reaches altitude 10° 19:32:35 10° 282° (WNW) 1,598 ? -31.7°
Enters shadow 19:33:19 15° 276° (W) 1,339 ? -31.8°
